Regional Weather Roundup
Issued by NWS Binghamton, NY

Home | Current Version | Previous Version | Text Only | Print | Product List | Glossary On
Versions: 1 2 3 4 5 6 7 8 9 10 11 12 13 14 15 16 17 18 19 20 21 22 23 24 25 26 27 28 29 30 31 32 33 34 35 36 37 38 39 40 41 42 43 44 45 46 47 48 49 50
000
ASUS41 KBGM 220710
RWRBGM
RWRBGM
BINGHAMTON REGIONAL WEATHER ROUNDUP
NATIONAL WEATHER SERVICE BINGHAMTON NY
300 AM EDT MON SEP 22 2014

Note: "fair" indicates few or no clouds below 12,000 feet with no
significant weather and/or obstructions to visibility.

* = Station(s) that does not report precipitation, such as rain,
snow, etc, also no thunder or fog.

!NYZ009-015>018-022>025-036-037-044>046-055>057-062-220800
...CENTRAL NEW YORK...

CITY           SKY/WX    TMP DP  RH WIND       PRES   REMARKS
BINGHAMTON     MOCLDY    54  51  90 W8        29.71R
CORTLAND       CLOUDY    55  52  88 S3        29.71S
DANSVILLE      CLOUDY    56  51  84 NW9       29.79R
ELMIRA         CLOUDY    59  53  80 SW10      29.72R
ITHACA         CLOUDY    57  53  86 W9        29.72R
HAMILTON       MOSUNNY   54  52  94 S3        29.67S
MONTICELLO     PTCLDY    55  54  94 W7        29.71R
NORWICH        CLOUDY    54  52  94 CALM      29.70R
ONEONTA        PTCLDY    54  48  82 W8        29.69R
PENN YAN       CLOUDY    58  53  84 W12       29.73R
ROME           CLOUDY    58  54  86 W6        29.65R
SIDNEY         MOCLDY    57  57 100 W3        29.70R
SYRACUSE       CLOUDY    58  54  86 NW16      29.68R
$$

!PAZ038>040-043-044-047-048-072-220800
...NORTHEAST PENNSYLVANIA...

CITY           SKY/WX    TMP DP  RH WIND       PRES   REMARKS
HAZLETON       PTCLDY    59  50  72 W9        29.78S
SCRANTON       CLOUDY    60  55  83 SW6       29.73S
TOWANDA*       PTCLDY    57  55  94 SW6       29.73S
$$
&&
KEY
WCI = WIND CHILL INDEX
VSB = VISIBILITY
HX  = HEAT INDEX
$$


USA.gov is the U.S. government's official web portal to all federal, state and local government web resources and services.